TimeCDT,TemperatureF,Dew PointF,Humidity,Sea Level PressureIn,VisibilityMPH,Wind Direction,Wind SpeedMPH,Gust SpeedMPH,PrecipitationIn,Events,Conditions,WindDirDegrees,DateUTC
12:52 AM,64.0,59.0,84,29.78,10.0,WNW,6.9,-,N/A,,Clear,290,2013-06-26 05:52:00
1:52 AM,63.0,57.9,84,29.79,10.0,WNW,6.9,-,N/A,,Clear,290,2013-06-26 06:52:00
2:52 AM,61.0,57.9,90,29.80,10.0,WSW,5.8,-,N/A,,Clear,240,2013-06-26 07:52:00
3:52 AM,60.1,57.0,90,29.81,10.0,Calm,Calm,-,N/A,,Clear,0,2013-06-26 08:52:00
4:52 AM,57.9,55.9,93,29.83,10.0,West,3.5,-,N/A,,Clear,270,2013-06-26 09:52:00
5:52 AM,57.9,55.9,93,29.85,10.0,WSW,8.1,-,N/A,,Clear,240,2013-06-26 10:52:00
6:52 AM,59.0,57.0,93,29.86,10.0,Calm,Calm,-,N/A,,Clear,0,2013-06-26 11:52:00
7:52 AM,64.9,59.0,81,29.87,10.0,Calm,Calm,-,N/A,,Clear,0,2013-06-26 12:52:00
8:52 AM,72.0,59.0,64,29.88,10.0,SW,4.6,-,N/A,,Clear,220,2013-06-26 13:52:00
9:52 AM,77.0,60.1,56,29.87,10.0,South,3.5,-,N/A,,Clear,180,2013-06-26 14:52:00
10:52 AM,82.9,52.0,34,29.88,10.0,South,8.1,-,N/A,,Clear,170,2013-06-26 15:52:00
11:52 AM,84.0,48.9,29,29.88,10.0,SSE,11.5,-,N/A,,Clear,160,2013-06-26 16:52:00
12:52 PM,86.0,52.0,31,29.89,10.0,South,11.5,21.9,N/A,,Clear,180,2013-06-26 17:52:00
1:52 PM,89.1,57.0,34,29.87,10.0,South,15.0,21.9,N/A,,Clear,190,2013-06-26 18:52:00
2:52 PM,90.0,61.0,38,29.86,10.0,South,10.4,19.6,N/A,,Clear,190,2013-06-26 19:52:00
3:52 PM,91.9,57.0,31,29.85,10.0,Variable,3.5,-,N/A,,Clear,0,2013-06-26 20:52:00
4:52 PM,91.9,57.9,32,29.83,10.0,SSW,10.4,-,N/A,,Clear,200,2013-06-26 21:52:00
5:52 PM,96.1,52.0,22,29.83,10.0,NNW,10.4,-,N/A,,Clear,330,2013-06-26 22:52:00
6:52 PM,93.9,55.9,28,29.82,10.0,NNW,9.2,-,N/A,,Clear,340,2013-06-26 23:52:00
7:52 PM,89.1,57.9,35,29.83,10.0,North,8.1,-,N/A,,Clear,10,2013-06-27 00:52:00
8:52 PM,84.0,60.1,44,29.83,10.0,North,10.4,-,N/A,,Clear,10,2013-06-27 01:52:00
9:52 PM,78.1,61.0,56,29.86,10.0,ENE,4.6,-,N/A,,Clear,60,2013-06-27 02:52:00
10:52 PM,73.0,62.1,68,29.89,10.0,North,5.8,-,N/A,,Clear,10,2013-06-27 03:52:00
11:52 PM,75.0,61.0,62,29.91,10.0,NNE,9.2,-,N/A,,Clear,30,2013-06-27 04:52:00